Location: Overspoor
(51.4747°N, 5.6641°E)
Time: 03:22:06
(UTC+02:00)

RS-15 - Visible Passes

Search period start: 26 June 2022 00:00
Search period end: 06 July 2022 00:00
Orbit: 1881 x 2163 km, 64.8° (Epoch: 25 June)

Date Brightness Start Highest point End Pass type
(mag) Time Alt. Az. Time Alt. Az. Time Alt. Az.
26 Jun 8.6 00:20:16 10° NW 00:32:38 63° NE 00:44:40 10° ESE visible
26 Jun 8.2 02:33:22 10° NW 02:45:23 61° WSW 02:57:01 10° SSE visible
26 Jun 8.8 23:43:57 10° NW 23:56:10 56° NNE 00:08:07 10° ESE visible
27 Jun 8.2 01:57:11 10° NW 02:09:30 73° WSW 02:21:24 10° SSE visible
27 Jun 9.1 04:11:03 10° NW 04:19:47 24° W 04:28:21 10° SW visible
27 Jun 8.9 23:07:34 10° NW 23:19:37 51° NNE 23:31:28 10° E visible
28 Jun 8.2 01:21:02 10° NW 01:33:29 85° SW 01:45:33 10° SE visible
28 Jun 8.9 03:34:25 10° NW 03:44:22 31° WSW 03:53:54 11° SSW visible
28 Jun 9.1 22:31:05 10° WNW 22:42:58 48° NNE 22:54:43 10° E visible
29 Jun 8.3 00:44:52 10° NW 00:57:22 83° NE 01:09:29 10° SE visible
29 Jun 8.6 02:58:00 10° NW 03:08:51 39° WSW 03:18:11 14° SSW visible
30 Jun 8.4 00:08:39 10° NW 00:21:08 73° NE 00:33:15 10° SE visible
30 Jun 8.4 02:21:42 10° NW 02:33:13 49° WSW 02:42:36 16° S visible
30 Jun 9.5 04:38:52 10° WNW 04:42:11 11° W 04:45:29 10° WSW visible
30 Jun 8.6 23:32:25 10° NW 23:44:47 64° NE 23:56:51 10° ESE visible
01 Jul 8.3 01:45:29 10° NW 01:57:27 59° WSW 02:07:07 17° S visible
01 Jul 9.4 04:00:24 10° WNW 04:07:02 17° W 04:13:36 10° SW visible
01 Jul 8.7 22:56:07 10° NW 23:08:21 57° NNE 23:20:18 10° ESE visible
02 Jul 8.2 01:09:19 10° NW 01:21:36 71° WSW 01:31:42 16° SSE visible
02 Jul 9.2 03:23:17 10° NW 03:31:46 23° W 03:39:24 12° SW visible
02 Jul 8.9 22:19:44 10° NW 22:31:48 52° NNE 22:43:39 10° E visible
03 Jul 8.2 00:33:09 10° NW 00:45:36 84° SW 00:56:22 14° SSE visible
03 Jul 9.0 02:46:35 10° NW 02:56:23 30° WSW 03:04:04 15° SSW visible
03 Jul 8.2 23:56:59 10° NW 00:09:30 85° NE 00:21:06 12° SE visible
04 Jul 8.7 02:10:09 10° NW 02:20:53 38° WSW 02:28:48 18° SSW visible
04 Jul 8.4 23:20:48 10° NW 23:33:17 74° NE 23:45:24 10° SE visible
05 Jul 8.5 01:33:50 10° NW 01:45:16 47° WSW 01:53:36 19° S visible
05 Jul 9.6 03:51:46 10° WNW 03:54:08 11° W 03:56:30 10° W visible
05 Jul 8.5 22:44:33 10° NW 22:56:57 65° NE 23:09:00 10° ESE visible
